GW6935 Weather Reports


Display with metric or nautical units.
time (UTC)temp
F
wind
direction
speed
MPH
gust
MPH
rain 1hr
in
rain 24hr
in
rain mn
in
humidity
%
barometer
mb
20260503212943 64 214 3.0 4.0 0.00 0.00 0.00 34 1051.1
20260503212441 64 234 1.0 2.0 0.00 0.00 0.00 34 1051.1
20260503211938 65 225 2.0 3.0 0.00 0.00 0.00 38 1051.6
20260503211435 64 229 2.0 4.0 0.00 0.00 0.00 37 1051.7
20260503210931 65 235 2.0 4.0 0.00 0.00 0.00 37 1051.5
20260503210428 64 272 2.0 4.0 0.00 0.00 0.00 36 1051.7
20260503205927 63 240 3.0 4.0 0.00 0.00 0.00 38 1051.8
20260503205425 65 265 1.0 3.0 0.00 0.00 0.00 35 1051.8
20260503204921 64 202 2.0 2.0 0.00 0.00 0.00 36 1051.6
20260503204418 65 200 3.0 4.0 0.00 0.00 0.00 32 1051.8
20260503203915 64 265 2.0 3.0 0.00 0.00 0.00 40 1051.9
20260503203413 64 218 2.0 4.0 0.00 0.00 0.00 33 1051.7
20260503202909 64 238 2.0 2.0 0.00 0.00 0.00 34 1052.0
20260503202408 63 218 2.0 3.0 0.00 0.00 0.00 37 1052.5
20260503201906 64 197 4.0 4.0 0.00 0.00 0.00 32 1052.6
20260503201402 64 210 1.0 3.0 0.00 0.00 0.00 32 1052.7
20260503200900 65 203 4.0 4.0 0.00 0.00 0.00 30 1052.7
20260503200355 65 249 2.0 3.0 0.00 0.00 0.00 36 1052.7
20260503195853 65 210 1.0 3.0 0.00 0.00 0.00 32 1052.8
20260503195349 65 272 3.0 3.0 0.00 0.00 0.00 39 1053.0
20260503194847 65 274 2.0 4.0 0.00 0.00 0.00 36 1053.1
20260503194343 64 249 2.0 4.0 0.00 0.00 0.00 40 1053.3
20260503193839 63 206 2.0 4.0 0.00 0.00 0.00 39 1053.1
20260503193335 64 201 3.0 4.0 0.00 0.00 0.00 38 1053.2
20260503192831 63 247 3.0 4.0 0.00 0.00 0.00 37 1053.2
20260503192327 63 196 3.0 6.0 0.00 0.00 0.00 36 1053.4
20260503191823 63 196 5.0 6.0 0.00 0.00 0.00 33 1053.4
20260503191321 64 206 4.0 4.0 0.00 0.00 0.00 34 1053.6
20260503190817 64 249 2.0 3.0 0.00 0.00 0.00 35 1053.6
20260503190314 63 205 2.0 3.0 0.00 0.00 0.00 35 1053.7
20260503185811 63 190 2.0 3.0 0.00 0.00 0.00 33 1053.6
20260503185307 62 195 3.0 4.0 0.00 0.00 0.00 36 1053.8
20260503184807 62 201 3.0 3.0 0.00 0.00 0.00 37 1054.1
20260503184304 62 205 4.0 6.0 0.00 0.00 0.00 37 1054.1
20260503183759 61 215 4.0 6.0 0.00 0.00 0.00 40 1054.1
20260503183257 61 203 3.0 3.0 0.00 0.00 0.00 38 1054.1
20260503182754 62 194 4.0 4.0 0.00 0.00 0.00 39 1054.2
20260503182253 62 203 3.0 4.0 0.00 0.00 0.00 34 1054.1
20260503181750 62 237 2.0 4.0 0.00 0.00 0.00 38 1054.4
20260503181247 61 213 2.0 6.0 0.00 0.00 0.00 39 1054.2
20260503180743 62 195 5.0 6.0 0.00 0.00 0.00 37 1054.3
20260503180242 61 212 1.0 3.0 0.00 0.00 0.00 44 1054.5
20260503175738 61 201 4.0 4.0 0.00 0.00 0.00 38 1054.6
20260503175236 62 191 4.0 4.0 0.00 0.00 0.00 35 1054.7
20260503174732 62 195 2.0 3.0 0.00 0.00 0.00 35 1054.7
20260503174230 62 210 2.0 6.0 0.00 0.00 0.00 35 1055.1
20260503173730 62 243 0.0 4.0 0.00 0.00 0.00 44 1054.7
20260503173226 60 196 2.0 3.0 0.00 0.00 0.00 42 1055.1
20260503172723 60 191 4.0 7.0 0.00 0.00 0.00 39 1055.1
20260503172220 60 203 4.0 4.0 0.00 0.00 0.00 40 1055.3
20260503171717 60 196 4.0 4.0 0.00 0.00 0.00 36 1055.3
20260503171214 60 191 2.0 4.0 0.00 0.00 0.00 44 1055.5
20260503170711 60 217 2.0 3.0 0.00 0.00 0.00 36 1055.5
20260503170208 60 192 3.0 4.0 0.00 0.00 0.00 36 1055.6
20260503160129 61 203 4.0 3.0 0.00 0.00 0.00 39 1056.3
20260503150559 58 268 2.0 2.0 0.00 0.00 0.00 43 1056.7
20260503130949 47 218 1.0 2.0 0.00 0.00 0.00 63 1056.5
20260503130447 46 225 0.0 1.0 0.00 0.00 0.00 63 1056.4
20260503110343 31 356 0.0 0.0 0.00 0.00 0.00 94 1055.8
20260503090235 32 356 0.0 0.0 0.00 0.00 0.00 92 1055.2
20260503081202 33 356 0.0 0.0 0.00 0.00 0.00 91 1054.8
20260503080657 34 356 0.0 0.0 0.00 0.00 0.00 90 1055.2
20260503080155 34 356 0.0 0.0 0.00 0.00 0.00 90 1055.1
20260503072631 35 356 0.0 0.0 0.00 0.00 0.00 88 1054.7
20260503072128 35 356 0.0 0.0 0.00 0.00 0.00 89 1054.6
20260503071625 35 356 0.0 0.0 0.00 0.00 0.00 89 1054.7
20260503071122 35 356 0.0 0.0 0.00 0.00 0.00 89 1054.9
20260503070619 35 356 0.0 0.0 0.00 0.00 0.00 89 1054.9
20260503070117 35 356 0.0 0.0 0.00 0.00 0.00 88 1054.7
20260503055037 38 10 0.0 0.0 0.00 0.00 0.00 79 1054.9
20260503054533 38 10 0.0 0.0 0.00 0.00 0.00 78 1055.1
20260503054031 39 10 0.0 0.0 0.00 0.00 0.00 77 1055.2
20260503053529 39 10 0.0 0.0 0.00 0.00 0.00 77 1055.1
20260503053026 38 10 0.0 0.0 0.00 0.00 0.00 79 1054.9
20260503052523 38 10 0.0 0.0 0.00 0.00 0.00 79 1054.9
20260503052019 38 10 0.0 0.0 0.00 0.00 0.00 81 1055.3
20260503051515 38 10 0.0 0.0 0.00 0.00 0.00 78 1055.1
20260503051012 39 10 0.0 0.0 0.00 0.00 0.00 75 1055.2
20260503050508 40 10 0.0 0.0 0.00 0.00 0.00 71 1055.2
20260503050006 41 10 0.0 0.0 0.00 0.00 0.00 70 1055.4
20260503045503 41 10 0.0 0.0 0.00 0.00 0.00 68 1055.2
20260503045000 41 10 0.0 0.0 0.00 0.00 0.00 68 1055.2
20260503044457 41 10 0.0 0.0 0.00 0.00 0.00 67 1055.2
20260503043954 42 10 0.0 0.0 0.00 0.00 0.00 69 1055.2
20260503043450 42 10 0.0 0.0 0.00 0.00 0.00 69 1055.1
20260503042947 43 10 0.0 0.0 0.00 0.00 0.00 67 1055.1
20260503042443 43 10 0.0 0.0 0.00 0.00 0.00 65 1054.9
20260503041940 43 10 0.0 0.0 0.00 0.00 0.00 64 1055.2
20260503041437 43 10 0.0 0.0 0.00 0.00 0.00 65 1054.9
20260503040934 43 10 0.0 0.0 0.00 0.00 0.00 65 1055.1
20260503040432 43 10 0.0 0.0 0.00 0.00 0.00 65 1054.9
20260503035929 43 10 0.0 0.0 0.00 0.00 0.00 64 1055.1
20260503035425 44 10 0.0 0.0 0.00 0.00 0.00 64 1055.1
20260503034923 44 10 0.0 0.0 0.00 0.00 0.00 65 1054.9
20260503034421 43 10 0.0 0.0 0.00 0.00 0.00 68 1054.8
20260503033917 43 10 0.0 0.0 0.00 0.00 0.00 67 1055.1
20260503033415 42 10 0.0 0.0 0.00 0.00 0.00 67 1054.7
20260503032913 42 10 0.0 0.0 0.00 0.00 0.00 70 1054.8
20260503032411 42 10 0.0 0.0 0.00 0.00 0.00 71 1054.8
20260503031908 42 10 0.0 0.0 0.00 0.00 0.00 70 1054.8
20260503031406 42 10 0.0 0.0 0.00 0.00 0.00 70 1055.1
20260503030902 43 10 0.0 0.0 0.00 0.00 0.00 71 1054.7
20260503030358 43 10 0.0 0.0 0.00 0.00 0.00 69 1054.9
20260503025855 43 10 0.0 0.0 0.00 0.00 0.00 71 1054.7
20260503025353 43 10 0.0 0.0 0.00 0.00 0.00 69 1054.7
20260503024850 44 10 0.0 0.0 0.00 0.00 0.00 67 1054.7
20260503024346 44 10 0.0 0.0 0.00 0.00 0.00 65 1054.6
20260503023843 45 10 0.0 0.0 0.00 0.00 0.00 64 1054.5
20260503023341 45 10 0.0 0.0 0.00 0.00 0.00 64 1054.3
20260503022838 46 10 0.0 0.0 0.00 0.00 0.00 61 1054.4
20260503022337 46 10 0.0 0.0 0.00 0.00 0.00 59 1054.4
20260503021834 46 10 0.0 0.0 0.00 0.00 0.00 59 1054.3
20260503021330 46 10 0.0 1.0 0.00 0.00 0.00 59 1054.1
20260503020828 46 10 0.0 1.0 0.00 0.00 0.00 60 1054.0
20260503020326 46 11 0.0 1.0 0.00 0.00 0.00 61 1054.2
20260503015822 46 11 0.0 1.0 0.00 0.00 0.00 62 1053.9
20260503015319 46 19 1.0 3.0 0.00 0.00 0.00 63 1053.7
20260503014814 46 359 0.0 2.0 0.00 0.00 0.00 64 1053.7
20260503014313 46 325 1.0 1.0 0.00 0.00 0.00 67 1053.7
20260503013810 46 22 0.0 0.0 0.00 0.00 0.00 69 1053.7
20260503013307 46 24 0.0 4.0 0.00 0.00 0.00 68 1053.5
20260503012804 46 300 0.0 0.0 0.00 0.00 0.00 70 1053.6
20260503012302 47 300 0.0 0.0 0.00 0.00 0.00 72 1053.5
20260503011758 47 300 0.0 0.0 0.00 0.00 0.00 66 1053.5
20260503011255 48 300 0.0 0.0 0.00 0.00 0.00 66 1053.3
20260503010751 48 300 0.0 0.0 0.00 0.00 0.00 64 1053.4
20260503010249 48 300 0.0 0.0 0.00 0.00 0.00 61 1053.5
20260503005746 48 300 0.0 0.0 0.00 0.00 0.00 61 1053.2
20260503005243 48 300 0.0 0.0 0.00 0.00 0.00 63 1053.1
20260503004739 48 300 0.0 0.0 0.00 0.00 0.00 60 1053.2
20260503004237 48 300 0.0 0.0 0.00 0.00 0.00 59 1053.2
20260503003734 48 300 0.0 0.0 0.00 0.00 0.00 62 1052.9
20260503003231 49 300 0.0 0.0 0.00 0.00 0.00 63 1053.0
20260503002728 49 300 0.0 0.0 0.00 0.00 0.00 62 1053.0
20260503002225 49 300 1.0 1.0 0.00 0.00 0.00 61 1052.9
20260503001721 50 300 1.0 1.0 0.00 0.00 0.00 60 1052.8
20260503001217 50 300 0.0 1.0 0.00 0.00 0.00 60 1052.8
20260503000715 50 300 0.0 1.0 0.00 0.00 0.00 59 1052.6
20260503000212 51 293 2.0 2.0 0.00 0.00 0.00 54 1052.9
20260502235709 51 288 1.0 1.0 0.00 0.00 0.00 61 1052.6
20260502235208 52 288 0.0 1.0 0.00 0.00 0.00 56 1052.5
20260502234703 52 286 1.0 1.0 0.00 0.00 0.00 51 1052.4
20260502234200 52 315 1.0 1.0 0.00 0.00 0.00 53 1052.4
20260502233656 51 338 0.0 0.0 0.00 0.00 0.00 55 1052.7
20260502233153 51 336 0.0 1.0 0.00 0.00 0.00 55 1052.6
20260502232649 51 322 1.0 1.0 0.00 0.00 0.00 55 1052.6
20260502232147 52 334 2.0 2.0 0.00 0.00 0.00 53 1052.6
20260502231643 53 10 3.0 4.0 0.00 0.00 0.00 50 1052.5
20260502231141 54 9 3.0 3.0 0.00 0.00 0.00 47 1052.6
20260502230640 55 39 2.0 3.0 0.00 0.00 0.00 50 1052.5
20260502230137 54 319 1.0 1.0 0.00 0.00 0.00 53 1052.3
20260502225632 55 18 3.0 3.0 0.00 0.00 0.00 47 1052.3
20260502225131 55 2 1.0 2.0 0.00 0.00 0.00 52 1052.6
20260502224626 54 345 1.0 1.0 0.00 0.00 0.00 47 1052.4
20260502224123 54 332 3.0 3.0 0.00 0.00 0.00 48 1052.5
20260502223621 54 322 2.0 3.0 0.00 0.00 0.00 48 1052.6
20260502223119 54 316 2.0 2.0 0.00 0.00 0.00 53 1052.6
20260502222616 54 271 1.0 1.0 0.00 0.00 0.00 51 1052.8
20260502222112 54 336 2.0 4.0 0.00 0.00 0.00 49 1052.8
20260502221608 54 10 4.0 6.0 0.00 0.00 0.00 50 1052.6
20260502221106 54 11 2.0 4.0 0.00 0.00 0.00 48 1052.6
20260502220601 54 302 2.0 3.0 0.00 0.00 0.00 50 1052.8
20260502220058 54 19 4.0 6.0 0.00 0.00 0.00 48 1052.4
20260502215555 55 351 3.0 6.0 0.00 0.00 0.00 51 1052.4
20260502215052 56 292 2.0 2.0 0.00 0.00 0.00 50 1052.5
20260502214549 55 68 0.0 2.0 0.00 0.00 0.00 52 1052.6
20260502214047 55 13 3.0 4.0 0.00 0.00 0.00 45 1052.6
20260502213543 55 323 1.0 7.0 0.00 0.00 0.00 49 1052.4